Location: *
(48.7358°N, 0.3111°E)
Time: 00:19:35
(UTC+00:00)

Cosmos 1758 Rocket - Pass Details

Date: 22 October 2019
Orbit: 603 x 635 km, 82.5° (Epoch: 22 November)

Event Time Altitude Azimuth Distance (km) Brightness Sun altitude
Rises 05:51:46 0° 178° (S) 2,850 7.1 -6.8°
Reaches altitude 10° 05:53:58 10° 175° (S) 1,955 6.3 -6.5°
Maximum altitude 05:58:14 61° 96° (E) 697 4.2 -5.8°
Drops below altitude 10° 06:02:34 10° 16° (NNE) 1,988 6.2 -5.1°
Sets 06:04:50 0° 13° (NNE) 2,904 7.0 -4.7°
